Upstream stations:
Downstream station:
SHEF ID: CLRO2 Verdigris River near Claremore,
STATION TYPE:
Regulating: Stage = 35.00, Flow = 53764
PRECIP STAGE STAGE(2) RIV-FLOW BAT-LOAD
in ft ft cfs volt
Ccp-Rev Ccp-Rev Ccp-Rev Ccp-Rev Ccp-Rev
(US/Central)
03/10 00:00 0.00 4.07 3.96 308 12.81
03/10 01:00 0.00 4.06 3.95 303 12.73
03/10 02:00 0.00 4.06 3.90 303 12.73
03/10 03:00 0.00 4.06 3.93 303 12.73
03/10 04:00 0.00 4.06 3.91 303 12.73
03/10 05:00 0.00 4.05 3.91 299 12.73
03/10 06:00 0.00 4.05 3.94 299 12.73
03/10 07:00 0.00 4.05 3.94 299 12.65
03/10 08:00 0.00 4.05 3.95 299 12.65
03/10 09:00 0.00 4.05 3.92 299 12.81
03/10 10:00 0.00 4.04 3.89 294 13.05
03/10 11:00 0.00 4.04 3.94 294 13.60
03/10 12:00 0.00 4.05 3.95 299 13.60
03/10 13:00 0.00 4.06 3.91 303 13.53
03/10 14:00 0.00 4.05 3.88 299 13.84
03/10 15:00 0.00 4.05 3.94 299 13.37
03/10 16:00 0.00 4.05 3.87 299 13.84
03/10 17:00 0.05 4.05 3.92 299 13.29
03/10 18:00 0.00 4.05 3.95 299 13.21
03/10 19:00 0.00 4.04 3.97 294 13.05
03/10 20:00 0.00 4.04 3.96 294 12.89
03/10 21:00 ---- ---- ---- ---- ----
03/10 22:00 ---- ---- ---- ---- ----
03/10 23:00 ---- ---- ---- ---- ----